Погода в Бетте

Россия / Краснодарский край     44°22′21″N   38°23′26″E
темп.,
°C
ветер,
м/с
пор.,
м/с
влажн.,
%
обл.,
%
осадки,
мм/ч
давл.,
гПа
погр.,
м
8 августа, пн
пн800:00+26св914590 0.0 1007627
03:00+24всв710660 0.0 1008381
06:00+24св914660 0.0 1009530
09:00+27св1116590 0.0 1009933
12:00+28в610560 0.0 1010317
15:00+28юз24650 0.0 1009250
18:00+30св812430 0.0 1009242
21:00+29св1015430 0.0 1009323
9 августа, вт
вт900:00+28всв1117460 0.0 1009492
03:00+26всв69580 0.0 1010533
06:00+25всв79530 0.0 1010484
09:00+28всв914450 0.0 1010524
12:00+30всв913440 0.0 1009286
15:00+28ю56590 0.0 1008299
18:00+29сз26543 0.0 1006177
21:00+30всв1015455 0.0 1006301
10 августа, ср
ср1000:00+28всв1015470 0.0 1006387
03:00+26в56560 0.0 1006232
06:00+25св56500 0.0 1006207
09:00+26св675030 0.0 1006363
12:00+28ююв22537 0.1 100678
15:00+27юз55633 0.1 1005186
18:00+27зсз346984 0.0 1004107
21:00+27сз467258 0.0 1004125
11 августа, чт
чт1100:00+26ююв227786 0.1 1004118
03:00+26вюв338098 0.1 1005129
06:00+25в557972 0.0 1006258
09:00+26вюв4674100 0.1 1007511
12:00+26юв45805 0.4 1007467
15:00+27юв34780 0.8 1007471
18:00+27ююв11780 0.0 1007282
21:00+26сз11810 0.0 1008148
12 августа, пт
пт1200:00+26вюв23835 0.0 1008279
03:00+26юв458210 0.0 1009562
06:00+26ююв558220 0.1 1010593
09:00+26юв558311 0.1 1010547
12:00+26ююв33806 0.0 1011560
15:00+27ююз12768 0.0 1010372
18:00+27з227790 0.7 1010234
21:00+26сз448098 0.7 1010286